Location: Unspecified
(52.4292°N, 19.3359°E)
Time: 21:41:25
(UTC+02:00)

A-11 Canister half - Pass Details

Date: 24 May 2024
Orbit: 1524 x 1683 km, 47.3° (Epoch: 19 June)

Event Time Altitude Azimuth Distance (km) Brightness Sun altitude
Rises 22:02:32 0° 233° (SW) 4,681 11.6 -9.0°
Reaches altitude 10° 22:05:38 10° 229° (SW) 3,711 11.0 -9.3°
Maximum altitude 22:14:34 52° 157° (SSE) 1,896 9.1 -10.1°
Drops below altitude 10° 22:23:48 10° 85° (E) 3,827 10.8 -10.9°
Sets 22:27:02 0° 81° (E) 4,837 11.4 -11.1°
